Location: St. Louis
(38.6270°N, 90.1994°W)
Time: 07:52:31
(UTC-05:00)

ISS - Visible Passes

Search period start: 28 March 2023 00:00
Search period end: 07 April 2023 00:00
Orbit: 413 x 422 km, 51.6° (Epoch: 28 March)

Date Brightness Start Highest point End Pass type
(mag) Time Alt. Az. Time Alt. Az. Time Alt. Az.
28 Mar -1.5 20:32:51 10° NNW 20:34:53 15° NNE 20:36:02 13° NE visible
28 Mar -0.3 22:08:47 10° NW 22:08:58 11° NW 22:08:58 11° NW visible
29 Mar -1.2 19:45:06 10° N 19:46:30 12° NNE 19:47:52 10° NE visible
29 Mar -2.1 21:20:45 10° NW 21:22:50 30° NNW 21:22:50 30° NNW visible
30 Mar -2.4 20:32:46 10° NNW 20:35:41 27° NNE 20:36:43 23° ENE visible
30 Mar -0.3 22:09:25 10° WNW 22:09:38 11° WNW 22:09:38 11° WNW visible
31 Mar -1.9 19:44:48 10° NNW 19:47:19 19° NNE 19:49:49 10° ENE visible
31 Mar -2.7 21:21:01 10° WNW 21:23:32 44° WNW 21:23:32 44° WNW visible
01 Apr -3.8 20:32:46 10° NW 20:36:06 70° NE 20:37:27 32° ESE visible
02 Apr -1.6 21:21:47 10° W 21:24:18 20° SW 21:24:20 20° SW visible
03 Apr -2.5 20:32:59 10° WNW 20:36:05 36° SW 20:38:21 16° SSE visible
05 Apr -0.9 20:34:18 10° WSW 20:35:40 12° SW 20:37:03 10° SSW visible
